This is the latest recevied weather packets stored in our database for station/object K7VLL. If no packets are shown the sender has not sent any weather packets the latest 10 day(s).
| Time | Temp. | Humidity | Pressure | Rain* | Wind** | Luminosity | Snow |
|---|---|---|---|---|---|---|---|
| 1778362143 | 38.33° C | 7% | 1086.5 hPa | 0 mm | - | 603 W/m² | - |
| 1778360338 | 38.33° C | 8% | 1086.9 hPa | 0 mm | - | 649 W/m² | - |
| 1778358532 | 37.22° C | 8% | 1087.5 hPa | 0 mm | - | 687 W/m² | - |
| 1778356731 | 36.11° C | 8% | 1088 hPa | 0 mm | - | 710 W/m² | - |
| 1778354931 | 35.56° C | 9% | 1088.2 hPa | 0 mm | - | 719 W/m² | - |
| 1778353128 | 35.56° C | 10% | 1088.7 hPa | 0 mm | - | 711 W/m² | - |
| 1778351323 | 35° C | 10% | 1088.9 hPa | 0 mm | - | 690 W/m² | - |
| 1778349523 | 33.33° C | 11% | 1089.5 hPa | 0 mm | - | 658 W/m² | - |
| 1778347723 | 32.78° C | 12% | 1089.4 hPa | 0 mm | - | 613 W/m² | - |
| 1778345921 | 31.11° C | 13% | 1089.6 hPa | 0 mm | - | 555 W/m² | - |
| 1778344119 | 30.56° C | 16% | 1089.9 hPa | 0 mm | - | 486 W/m² | - |
| 1778342315 | 27.22° C | 21% | 1090.1 hPa | 0 mm | - | 106 W/m² | - |
| 1778340513 | 25° C | 24% | 1089.9 hPa | 0 mm | - | 120 W/m² | - |
| 1778338713 | 23.33° C | 25% | 1090.3 hPa | 0 mm | - | 36 W/m² | - |
| 1778336908 | 21.67° C | 27% | 1090 hPa | 0 mm | - | 33 W/m² | - |
| 1778335106 | 20.56° C | 29% | 1090 hPa | 0 mm | - | 85 W/m² | - |
| 1778333301 | 20.56° C | 30% | 1089.7 hPa | 0 mm | - | 30 W/m² | - |
| 1778331499 | 16.67° C | 35% | 1089.1 hPa | 0 mm | - | 17 W/m² | - |
| 1778329697 | 15.56° C | 37% | 1089 hPa | 0 mm | - | 1 W/m² | - |
| 1778327894 | 16.67° C | 35% | 1088.6 hPa | 0 mm | - | 0 W/m² | - |
| 1778326090 | 17.22° C | 34% | 1088.8 hPa | 0 mm | - | 0 W/m² | - |
| 1778324285 | 18.33° C | 31% | 1088.5 hPa | 0 mm | - | 0 W/m² | - |
| 1778322481 | 17.78° C | 33% | 1088.5 hPa | 0 mm | - | 0 W/m² | - |
| 1778320679 | 16.67° C | 36% | 1088.2 hPa | 0 mm | - | 0 W/m² | - |
| 1778318875 | 17.78° C | 33% | 1088.2 hPa | 0 mm | - | 0 W/m² | - |
* Rain latest hour (hover to see other rain measurements)
** Current wind speed in m/s (hover to see current wind gust speed)